| time (UTC) | temp F | wind direction | speed MPH | gust MPH | rain 1hr in | rain 24hr in | rain mn in | humidity % | barometer mb |
| 20260902170417 | 71 | 88 | 7.0 | 11.0 | 0.00 | 0.01 | 0.01 | 65 | 1009.8 |
| 20260902164428 | 71 | 96 | 7.0 | 12.0 | 0.00 | 0.01 | 0.01 | 68 | 1010.0 |
| 20260902162425 | 69 | 75 | 4.0 | 10.0 | 0.00 | 0.01 | 0.01 | 73 | 1010.1 |
| 20260902160916 | 67 | 49 | 6.0 | 10.0 | 0.00 | 0.01 | 0.01 | 78 | 1010.2 |
| 20260902154925 | 64 | 64 | 4.0 | 9.0 | 0.00 | 0.01 | 0.01 | 88 | 1010.2 |
| 20260902153417 | 63 | 65 | 4.0 | 7.0 | 0.00 | 0.01 | 0.01 | 94 | 1010.4 |
| 20260902151428 | 59 | 62 | 3.0 | 5.0 | 0.00 | 0.01 | 0.01 | 98 | 1010.7 |
| 20260902145920 | 58 | 45 | 2.0 | 5.0 | 0.01 | 0.01 | 0.01 | 98 | 1010.7 |
| 20260902143920 | 56 | 86 | 1.0 | 3.0 | 0.01 | 0.01 | 0.01 | 97 | 1010.7 |
| 20260902141925 | 55 | 60 | 1.0 | 4.0 | 0.01 | 0.01 | 0.01 | 97 | 1010.8 |
| 20260902135917 | 53 | 45 | 2.0 | 4.0 | 0.00 | 0.00 | 0.00 | 98 | 1010.8 |
| 20260902133932 | 50 | 57 | 1.0 | 3.0 | 0.00 | 0.00 | 0.00 | 97 | 1010.8 |
| 20260902131919 | 49 | 36 | 0.0 | 1.0 | 0.00 | 0.00 | 0.00 | 97 | 1010.9 |
| 20260902125935 | 47 | 27 | 0.0 | 2.0 | 0.00 | 0.00 | 0.00 | 97 | 1010.7 |
| 20260902123929 | 45 | 21 | 0.0 | 0.0 | 0.00 | 0.00 | 0.00 | 96 | 1010.7 |
| 20260902122424 | 45 | 17 | 0.0 | 0.0 | 0.00 | 0.00 | 0.00 | 97 | 1010.5 |
| 20260902120913 | 45 | 17 | 0.0 | 0.0 | 0.00 | 0.00 | 0.00 | 96 | 1010.4 |
| 20260902114931 | 45 | 17 | 0.0 | 0.0 | 0.00 | 0.00 | 0.00 | 96 | 1010.4 |
| 20260902112925 | 45 | 17 | 0.0 | 0.0 | 0.00 | 0.00 | 0.00 | 96 | 1010.6 |
| 20260902111422 | 46 | 17 | 0.0 | 0.0 | 0.00 | 0.00 | 0.00 | 96 | 1010.7 |
| 20260902105430 | 46 | 17 | 0.0 | 0.0 | 0.00 | 0.00 | 0.00 | 96 | 1010.7 |
| 20260902103429 | 47 | 17 | 0.0 | 0.0 | 0.00 | 0.00 | 0.00 | 96 | 1010.6 |
| 20260902101434 | 48 | 17 | 0.0 | 3.0 | 0.00 | 0.00 | 0.00 | 96 | 1010.7 |
| 20260902095930 | 48 | 22 | 0.0 | 1.0 | 0.00 | 0.00 | 0.00 | 96 | 1010.8 |
| 20260902093913 | 47 | 25 | 0.0 | 0.0 | 0.00 | 0.00 | 0.00 | 96 | 1010.8 |
| 20260902091922 | 47 | 25 | 0.0 | 0.0 | 0.00 | 0.00 | 0.00 | 96 | 1010.7 |
| 20260902085926 | 47 | 25 | 0.0 | 2.0 | 0.00 | 0.00 | 0.00 | 95 | 1010.7 |
| 20260902083929 | 47 | 24 | 0.0 | 0.0 | 0.00 | 0.00 | 0.00 | 96 | 1010.7 |
| 20260902081927 | 48 | 24 | 0.0 | 0.0 | 0.00 | 0.00 | 0.00 | 95 | 1010.8 |
| 20260902080415 | 48 | 24 | 0.0 | 1.0 | 0.00 | 0.00 | 0.00 | 95 | 1010.8 |
| 20260902074430 | 48 | 24 | 0.0 | 0.0 | 0.00 | 0.00 | 0.00 | 95 | 1011.0 |
| 20260902072425 | 48 | 24 | 0.0 | 0.0 | 0.00 | 0.00 | 0.00 | 95 | 1011.0 |
| 20260902070925 | 48 | 24 | 0.0 | 0.0 | 0.00 | 0.00 | 0.00 | 95 | 1011.0 |
| 20260902065415 | 48 | 24 | 0.0 | 0.0 | 0.00 | 0.00 | 0.00 | 94 | 1010.9 |
| 20260902063426 | 48 | 24 | 0.0 | 0.0 | 0.00 | 0.00 | 0.00 | 95 | 1011.0 |
| 20260902061923 | 48 | 24 | 0.0 | 0.0 | 0.00 | 0.00 | 0.00 | 94 | 1011.1 |
| 20260902055934 | 49 | 24 | 0.0 | 1.0 | 0.00 | 0.00 | 0.00 | 94 | 1011.1 |
| 20260902054428 | 50 | 24 | 0.0 | 0.0 | 0.00 | 0.00 | 0.00 | 94 | 1010.9 |
| 20260902052925 | 51 | 17 | 0.0 | 0.0 | 0.00 | 0.00 | 0.00 | 94 | 1010.9 |
| 20260902050932 | 51 | 17 | 0.0 | 2.0 | 0.00 | 0.00 | 0.00 | 93 | 1010.9 |
| 20260902044938 | 52 | 17 | 0.0 | 4.0 | 0.00 | 0.00 | 0.00 | 93 | 1010.8 |
| 20260902043417 | 52 | 17 | 0.0 | 0.0 | 0.00 | 0.00 | 0.00 | 92 | 1010.6 |
| 20260902041424 | 52 | 17 | 0.0 | 0.0 | 0.00 | 0.00 | 0.00 | 91 | 1010.6 |
| 20260902035918 | 53 | 17 | 0.0 | 0.0 | 0.00 | 0.00 | 0.00 | 91 | 1010.5 |
| 20260902033930 | 54 | 17 | 0.0 | 1.0 | 0.00 | 0.00 | 0.00 | 91 | 1010.5 |
| 20260902032425 | 54 | 36 | 2.0 | 4.0 | 0.00 | 0.00 | 0.00 | 90 | 1010.5 |
| 20260902030432 | 57 | 58 | 0.0 | 0.0 | 0.00 | 0.00 | 0.00 | 89 | 1010.4 |
| 20260902024923 | 57 | 57 | 0.0 | 0.0 | 0.00 | 0.00 | 0.00 | 88 | 1010.4 |
| 20260902022936 | 58 | 57 | 0.0 | 0.0 | 0.00 | 0.00 | 0.00 | 87 | 1010.3 |
| 20260902020928 | 60 | 51 | 0.0 | 0.0 | 0.00 | 0.00 | 0.00 | 84 | 1010.0 |
| 20260902015414 | 62 | 38 | 0.0 | 1.0 | 0.00 | 0.01 | 0.00 | 83 | 1009.8 |
| 20260902013414 | 65 | 38 | 0.0 | 0.0 | 0.00 | 0.01 | 0.00 | 78 | 1009.7 |
| 20260902011424 | 68 | 49 | 1.0 | 2.0 | 0.00 | 0.01 | 0.00 | 72 | 1009.8 |
| 20260902005431 | 72 | 41 | 2.0 | 5.0 | 0.00 | 0.01 | 0.00 | 66 | 1009.8 |
| 20260902003918 | 73 | 33 | 2.0 | 4.0 | 0.00 | 0.01 | 0.00 | 61 | 1009.8 |
| 20260902000919 | 75 | 76 | 1.0 | 4.0 | 0.00 | 0.01 | 0.00 | 56 | 1009.8 |
| 20260901234919 | 74 | 271 | 1.0 | 5.0 | 0.00 | 0.02 | 0.00 | 63 | 1009.8 |
| 20260901232425 | 74 | 17 | 1.0 | 5.0 | 0.00 | 0.02 | 0.00 | 59 | 1009.7 |
| 20260901230421 | 74 | 207 | 1.0 | 7.0 | 0.00 | 0.02 | 0.00 | 63 | 1009.9 |
| 20260901224916 | 73 | 226 | 3.0 | 10.0 | 0.00 | 0.04 | 0.00 | 62 | 1009.9 |
| 20260901222918 | 74 | 249 | 6.0 | 10.0 | 0.00 | 0.04 | 0.00 | 60 | 1009.9 |
| 20260901220914 | 74 | 5 | 3.0 | 6.0 | 0.00 | 0.04 | 0.00 | 59 | 1009.9 |
| 20260901214927 | 73 | 262 | 5.0 | 9.0 | 0.00 | 0.04 | 0.00 | 64 | 1010.2 |
| 20260901212928 | 73 | 17 | 3.0 | 10.0 | 0.00 | 0.04 | 0.00 | 62 | 1010.4 |
| 20260901211420 | 72 | 306 | 1.0 | 10.0 | 0.00 | 0.04 | 0.00 | 64 | 1010.5 |
| 20260901205916 | 72 | 284 | 3.0 | 14.0 | 0.00 | 0.04 | 0.00 | 67 | 1010.5 |
| 20260901203925 | 72 | 286 | 6.0 | 10.0 | 0.00 | 0.04 | 0.00 | 64 | 1010.5 |
| 20260901201930 | 72 | 326 | 4.0 | 10.0 | 0.00 | 0.04 | 0.00 | 67 | 1010.4 |
| 20260901200423 | 71 | 292 | 8.0 | 11.0 | 0.00 | 0.04 | 0.00 | 67 | 1010.5 |
| 20260901194423 | 70 | 315 | 5.0 | 11.0 | 0.00 | 0.05 | 0.00 | 70 | 1010.7 |
| 20260901192923 | 70 | 19 | 4.0 | 9.0 | 0.00 | 0.05 | 0.00 | 69 | 1010.7 |
| 20260901190429 | 69 | 272 | 6.0 | 11.0 | 0.00 | 0.05 | 0.00 | 71 | 1011.0 |
| 20260901184911 | 69 | 269 | 9.0 | 14.0 | 0.00 | 0.05 | 0.00 | 71 | 1010.9 |
| 20260901182923 | 68 | 267 | 7.0 | 12.0 | 0.00 | 0.05 | 0.00 | 73 | 1011.2 |
| 20260901180925 | 67 | 283 | 9.0 | 12.0 | 0.00 | 0.05 | 0.00 | 75 | 1011.3 |
| 20260901174924 | 67 | 269 | 7.0 | 12.0 | 0.00 | 0.05 | 0.00 | 74 | 1011.6 |
| 20260901172916 | 66 | 275 | 9.0 | 15.0 | 0.00 | 0.05 | 0.00 | 78 | 1011.5 |
| 20260901170926 | 65 | 267 | 11.0 | 15.0 | 0.00 | 0.05 | 0.00 | 80 | 1011.5 |